GW4678 Weather Reports


time (UTC)temp
F
wind
direction
speed
knots
gust
knots
rain 1hr
in
rain 24hr
in
rain mn
in
humidity
%
barometer
mb
20260503212002 76 250 0.9 3.5 0.00 0.00 0.00 50 1012.3
20260503211503 77 234 0.9 3.5 0.00 0.00 0.00 52 1012.3
20260503211005 77 276 0.9 4.3 0.00 0.00 0.00 54 1012.4
20260503210503 75 187 1.7 4.3 0.00 0.00 0.00 53 1012.4
20260503210005 75 178 0.9 4.3 0.00 0.00 0.00 55 1012.5
20260503205503 76 248 0.9 4.3 0.00 0.00 0.00 53 1012.6
20260503205003 76 221 1.7 4.3 0.00 0.00 0.00 52 1012.6
20260503204507 76 269 0.9 4.3 0.00 0.00 0.00 54 1012.7
20260503204002 76 260 1.7 3.5 0.00 0.00 0.00 52 1012.7
20260503203502 76 279 0.9 4.3 0.00 0.00 0.00 53 1012.7
20260503203010 76 220 1.7 4.3 0.00 0.00 0.00 56 1012.7
20260503202503 75 245 1.7 4.3 0.00 0.00 0.00 51 1012.7
20260503202003 75 238 0.9 4.3 0.00 0.00 0.00 53 1012.8
20260503201506 75 289 0.9 4.3 0.00 0.00 0.00 53 1012.8
20260503201002 75 257 0.9 4.3 0.00 0.00 0.00 53 1012.8
20260503200502 75 193 0.9 5.2 0.00 0.00 0.00 53 1012.9
20260503200010 75 219 0.9 5.2 0.00 0.00 0.00 52 1012.9
20260503195502 75 161 1.7 3.5 0.00 0.00 0.00 52 1013.1
20260503195002 75 168 0.9 5.2 0.00 0.00 0.00 52 1013.2
20260503194508 75 342 1.7 5.2 0.00 0.00 0.00 53 1013.2
20260503194004 74 349 1.7 4.3 0.00 0.00 0.00 51 1013.4
20260503193502 76 252 1.7 4.3 0.00 0.00 0.00 55 1013.3
20260503193021 75 320 0.9 3.5 0.00 0.00 0.00 53 1013.4
20260503192501 74 258 1.7 3.5 0.00 0.00 0.00 53 1013.4
20260503192003 74 233 0.9 3.5 0.00 0.00 0.00 57 1013.4
20260503191513 74 180 0.9 3.5 0.00 0.00 0.00 57 1013.4
20260503191003 74 255 0.9 3.5 0.00 0.00 0.00 54 1013.3
20260503190501 74 231 0.9 3.5 0.00 0.00 0.00 55 1013.4
20260503190014 73 245 1.7 2.6 0.00 0.00 0.00 55 1013.5
20260503185502 73 272 0.0 2.6 0.00 0.00 0.00 57 1013.5
20260503185002 73 340 0.0 3.5 0.00 0.00 0.00 57 1013.5
20260503184508 73 271 0.9 3.5 0.00 0.00 0.00 57 1013.5
20260503184003 73 338 0.9 2.6 0.00 0.00 0.00 58 1013.6
20260503183505 73 251 0.9 3.5 0.00 0.00 0.00 57 1013.7
20260503183009 72 330 0.9 3.5 0.00 0.00 0.00 60 1013.8
20260503182502 71 191 0.9 2.6 0.00 0.00 0.00 61 1013.8
20260503182004 70 193 0.9 2.6 0.00 0.00 0.00 64 1013.8
20260503181507 69 360 0.9 3.5 0.00 0.00 0.00 61 1013.8
20260503181003 69 262 1.7 3.5 0.00 0.00 0.00 62 1013.9
20260503180502 69 133 0.9 3.5 0.00 0.00 0.00 62 1014.0
20260503180011 69 248 1.7 3.5 0.00 0.00 0.00 61 1014.0
20260503175502 69 273 0.9 2.6 0.00 0.00 0.00 65 1014.2
20260503175002 69 212 0.0 3.5 0.00 0.00 0.00 64 1014.3
20260503174503 68 248 0.0 3.5 0.00 0.00 0.00 65 1014.4
20260503174003 67 247 0.9 2.6 0.00 0.00 0.00 64 1014.4
20260503173503 67 191 0.9 2.6 0.00 0.00 0.00 63 1014.4
20260503173007 68 337 0.0 2.6 0.00 0.00 0.00 66 1014.5
20260503172502 67 328 0.0 2.6 0.00 0.00 0.00 65 1014.5
20260503172002 67 342 0.9 2.6 0.00 0.00 0.00 64 1014.6
20260503171508 66 249 0.0 1.7 0.00 0.00 0.00 66 1014.7
20260503171002 66 250 0.0 1.7 0.00 0.00 0.00 65 1014.7
20260503170502 66 245 0.0 1.7 0.00 0.00 0.00 67 1014.6
20260503151007 57 359 0.0 3.5 0.00 0.00 0.00 79 1015.1
20260503150503 57 323 0.0 3.5 0.00 0.00 0.00 79 1015.1
20260503131011 50 103 0.0 0.0 0.00 0.00 0.00 91 1014.7
20260503130504 50 103 0.0 0.0 0.00 0.00 0.00 91 1014.7
20260503110507 52 103 0.0 0.0 0.00 0.00 0.00 89 1014.9
20260503090507 54 100 0.0 0.0 0.00 0.00 0.00 81 1015.0
20260503081534 55 69 0.0 0.9 0.00 0.00 0.00 77 1015.0
20260503081008 55 69 0.0 0.9 0.00 0.00 0.00 76 1015.0
20260503080510 55 28 0.0 0.0 0.00 0.00 0.00 75 1015.1
20260503072512 56 28 0.0 0.0 0.00 0.00 0.00 74 1014.9
20260503072006 56 28 0.0 0.0 0.00 0.00 0.00 74 1014.9
20260503071529 56 28 0.0 0.0 0.00 0.00 0.00 73 1014.9
20260503071011 56 28 0.0 0.0 0.00 0.00 0.00 73 1014.9
20260503070514 56 28 0.0 0.0 0.00 0.00 0.00 73 1014.9
20260503055003 59 28 0.0 0.0 0.00 0.00 0.00 67 1014.6
20260503054512 60 28 0.0 0.0 0.00 0.00 0.00 66 1014.7
20260503054008 60 28 0.0 0.0 0.00 0.00 0.00 64 1014.7
20260503053504 61 28 0.0 0.0 0.00 0.00 0.00 63 1014.7
20260503053004 61 28 0.0 0.0 0.00 0.00 0.00 62 1014.8
20260503052502 61 6 0.0 0.0 0.00 0.00 0.00 62 1014.8
20260503052004 61 6 0.0 0.0 0.00 0.00 0.00 62 1014.7
20260503051503 61 347 0.0 1.7 0.00 0.00 0.00 61 1014.7
20260503051003 61 336 0.0 1.7 0.00 0.00 0.00 62 1014.6
20260503050503 61 336 0.0 0.9 0.00 0.00 0.00 61 1014.6
20260503050005 62 336 0.0 2.6 0.00 0.00 0.00 61 1014.5
20260503045505 62 336 0.0 2.6 0.00 0.00 0.00 61 1014.5
20260503045005 62 359 0.0 1.7 0.00 0.00 0.00 60 1014.5
20260503044513 62 311 0.0 1.7 0.00 0.00 0.00 60 1014.4
20260503044004 63 356 0.0 1.7 0.00 0.00 0.00 60 1014.3
20260503043505 63 359 0.0 1.7 0.00 0.00 0.00 59 1014.3
20260503043017 63 342 0.0 2.6 0.00 0.00 0.00 59 1014.3
20260503042508 63 342 0.0 2.6 0.00 0.00 0.00 59 1014.1
20260503042008 64 335 0.0 1.7 0.00 0.00 0.00 58 1014.1
20260503041507 64 307 0.0 1.7 0.00 0.00 0.00 57 1014.0
20260503041002 64 325 0.0 1.7 0.00 0.00 0.00 57 1014.1
20260503040507 64 346 0.0 1.7 0.00 0.00 0.00 57 1014.0
20260503040006 64 348 0.0 1.7 0.00 0.00 0.00 56 1013.9
20260503035502 64 316 0.0 0.9 0.00 0.00 0.00 56 1013.8
20260503035003 65 324 0.0 1.7 0.00 0.00 0.00 55 1013.7
20260503034506 65 324 0.0 1.7 0.00 0.00 0.00 55 1013.7
20260503034003 65 324 0.0 1.7 0.00 0.00 0.00 55 1013.6
20260503033503 65 360 0.0 1.7 0.00 0.00 0.00 54 1013.6
20260503033012 66 360 0.0 1.7 0.00 0.00 0.00 54 1013.5
20260503032507 66 324 0.0 2.6 0.00 0.00 0.00 53 1013.5
20260503032007 66 334 0.0 2.6 0.00 0.00 0.00 53 1013.4
20260503031518 67 322 0.0 1.7 0.00 0.00 0.00 52 1013.3
20260503031007 67 331 0.0 1.7 0.00 0.00 0.00 52 1013.3
20260503030503 67 330 0.0 1.7 0.00 0.00 0.00 51 1013.3
20260503030003 68 326 0.0 1.7 0.00 0.00 0.00 50 1013.2
20260503025503 68 323 0.0 1.7 0.00 0.00 0.00 50 1013.2
20260503025003 68 337 0.0 1.7 0.00 0.00 0.00 50 1013.2
20260503024508 68 346 0.0 2.6 0.00 0.00 0.00 48 1013.2
20260503024002 69 329 0.9 2.6 0.00 0.00 0.00 48 1013.2
20260503023503 69 321 0.9 1.7 0.00 0.00 0.00 48 1013.1
20260503023010 69 324 0.0 2.6 0.00 0.00 0.00 48 1013.2
20260503022503 69 2 0.9 3.5 0.00 0.00 0.00 47 1013.1
20260503022003 69 23 0.9 3.5 0.00 0.00 0.00 46 1013.2
20260503021520 69 340 0.9 4.3 0.00 0.00 0.00 46 1013.2
20260503021006 70 338 0.9 4.3 0.00 0.00 0.00 46 1013.2
20260503020508 70 333 0.9 4.3 0.00 0.00 0.00 46 1013.2
20260503020020 70 316 0.9 6.1 0.00 0.00 0.00 46 1013.2
20260503015510 70 342 0.9 6.1 0.00 0.00 0.00 45 1013.2
20260503015002 70 328 0.9 4.3 0.00 0.00 0.00 45 1013.4
20260503014504 71 341 0.9 4.3 0.00 0.00 0.00 44 1013.3
20260503014004 71 305 0.9 5.2 0.00 0.00 0.00 43 1013.3
20260503013503 71 359 0.9 5.2 0.00 0.00 0.00 44 1013.4
20260503013017 71 1 0.9 5.2 0.00 0.00 0.00 44 1013.4
20260503012502 72 309 0.9 4.3 0.00 0.00 0.00 44 1013.5
20260503012004 73 1 0.9 3.5 0.00 0.00 0.00 47 1013.4
20260503011513 72 1 0.9 3.5 0.00 0.00 0.00 48 1013.4
20260503011004 73 359 0.9 4.3 0.00 0.00 0.00 48 1013.4
20260503010511 73 27 0.9 4.3 0.00 0.00 0.00 50 1013.4
20260503010018 73 269 0.9 3.5 0.00 0.00 0.00 49 1013.4
20260503005508 73 13 0.9 3.5 0.00 0.00 0.00 50 1013.6
20260503005007 73 360 1.7 3.5 0.00 0.00 0.00 50 1013.5
20260503004550 74 1 0.0 4.3 0.00 0.00 0.00 51 1013.4
20260503004012 74 304 0.9 4.3 0.00 0.00 0.00 51 1013.4
20260503003502 74 348 0.9 3.5 0.00 0.00 0.00 52 1013.4
20260503003008 73 20 0.9 5.2 0.00 0.00 0.00 51 1013.3
20260503002503 73 359 0.9 7.0 0.00 0.00 0.00 52 1013.4
20260503002003 73 330 1.7 7.0 0.00 0.00 0.00 51 1013.4
20260503001512 74 1 0.0 6.1 0.00 0.00 0.00 51 1013.5
20260503001003 74 340 0.9 2.6 0.00 0.00 0.00 51 1013.5
20260503000506 74 354 0.0 5.2 0.00 0.00 0.00 51 1013.5
20260503000017 74 355 0.9 5.2 0.00 0.00 0.00 52 1013.6
20260502235507 74 326 0.9 7.0 0.00 0.00 0.00 51 1013.7
20260502235007 74 343 0.0 7.0 0.00 0.00 0.00 51 1013.8
20260502234536 74 359 1.7 5.2 0.00 0.00 0.00 53 1013.8
20260502234009 75 49 1.7 5.2 0.00 0.00 0.00 53 1013.9
20260502233507 75 360 0.9 4.3 0.00 0.00 0.00 53 1013.9
20260502233032 74 344 1.7 6.1 0.00 0.00 0.00 52 1014.0
20260502232507 75 293 0.9 6.1 0.00 0.00 0.00 52 1014.1
20260502232003 75 340 0.9 4.3 0.00 0.00 0.00 52 1014.1
20260502231508 76 13 0.9 4.3 0.00 0.00 0.00 54 1014.2
20260502231003 75 359 0.0 4.3 0.00 0.00 0.00 54 1014.3
20260502230504 75 4 1.7 4.3 0.00 0.00 0.00 54 1014.3
20260502230014 75 318 0.9 4.3 0.00 0.00 0.00 54 1014.4
20260502225506 75 352 0.9 2.6 0.00 0.00 0.00 54 1014.5
20260502225008 75 269 0.9 2.6 0.00 0.00 0.00 56 1014.5
20260502224520 75 354 0.9 2.6 0.00 0.00 0.00 55 1014.7
20260502224011 75 18 0.0 2.6 0.00 0.00 0.00 55 1014.7
20260502223507 75 1 0.9 2.6 0.00 0.00 0.00 54 1014.8
20260502223036 75 36 0.0 7.8 0.00 0.00 0.00 57 1014.8
20260502222508 74 317 1.7 7.8 0.00 0.00 0.00 57 1015.0
20260502222009 75 322 0.9 3.5 0.00 0.00 0.00 55 1015.0
20260502221526 75 32 0.0 5.2 0.00 0.00 0.00 58 1014.9
20260502221005 75 342 0.9 6.1 0.00 0.00 0.00 56 1014.9
20260502220503 75 315 1.7 6.1 0.00 0.00 0.00 54 1015.0
20260502220015 75 301 0.9 5.2 0.00 0.00 0.00 55 1015.1
20260502215506 75 353 0.9 2.6 0.00 0.00 0.00 57 1015.1
20260502215004 75 1 0.0 1.7 0.00 0.00 0.00 56 1015.1
20260502214518 75 4 0.0 2.6 0.00 0.00 0.00 57 1015.1
20260502214008 75 1 0.9 3.5 0.00 0.00 0.00 56 1015.2
20260502213507 75 359 0.9 5.2 0.00 0.00 0.00 53 1015.2
20260502213024 74 344 0.9 5.2 0.00 0.00 0.00 54 1015.2
20260502212507 74 352 1.7 4.3 0.00 0.00 0.00 51 1015.3